Regional Weather Roundup
Issued by NWS

Home | Current Version | Previous Version | Text Only | Print | Product List | Glossary Off
Versions: 1 2 3 4 5 6 7 8 9 10 11 12 13 14 15 16 17 18 19 20 21 22 23 24 25 26 27 28 29 30 31 32 33 34 35 36 37 38 39 40 41 42 43 44 45 46 47 48 49 50

000
ASUS43 KIND 291009
RWRIN

WEATHER ROUNDUP FOR INDIANA
NATIONAL WEATHER SERVICE INDIANAPOLIS IN
600 AM EDT SAT AUG 29 2015

NOTE: "FAIR" INDICATES FEW OR NO CLOUDS BELOW 12,000 FEET WITH NO
SIGNIFICANT WEATHER AND/OR OBSTRUCTIONS TO VISIBILITY.

* - STATION DOES NOT REPORT WEATHER SUCH AS PRECIPITATION OR FOG.

+ - STATION NOT QUALITY CONTROLLED BY THE NATIONAL WEATHER SERVICE.
    USE DATA WITH CAUTION...ESPECIALLY DEWPOINT AND RELATIVE
    HUMIDITY OBSERVATIONS.

INZ001>003-010>013-019-020-291100-
NORTHWEST INDIANA

CITY           SKY/WX    TMP DP  RH WIND       PRES   REMARKS
GARY /AIRPORT/ MOCLDY    66  57  72 SE8       30.05F
KNOX *+        MOCLDY    63  59  88 SE6       30.06S
LA PORTE +     MOCLDY    62  62 100 CALM      30.08S
MICHIGAN CITY+ CLOUDY    64  55  72 S5        30.07S
MONTICELLO +   CLOUDY    65  61  86 CALM      30.06S
RENSSELAER +   CLOUDY    63  61  94 SE3       30.06S
VALPARAISO     MOCLDY    61  58  90 E5        30.06F

$$

LMZ046-743>745-291100-
SOUTHERN LAKE MICHIGAN

STATION/POSITION TIME  TEMP    WIND        PRES    WAVE
                       AIR SEA DIR/SP/G            HT
                 (UTC) (F)     (DEG/KT/KT) (MB)    (FT)
BURNS HARBOR     0900   68     150/  8/ 13 1017.9F
MICHIGAN CITY    0900   67     130/  8/ 11   N/A
5NW MICH CITY    1000   68 71  180/ 12/ 14   N/A     1

$$

INZ004-005-014>016-021>024-291100-
NORTH CENTRAL INDIANA

CITY           SKY/WX    TMP DP  RH WIND       PRES   REMARKS
GOSHEN         CLOUDY    64  58  80 SE5       30.09S
LOGANSPORT +   CLOUDY    61  55  82 SE5       30.08S
PERU/GRISSOM   CLOUDY    64  59  85 SE6       30.07F
ROCHESTER +    CLOUDY    64  61  88 E3        30.08F
SOUTH BEND     MOCLDY    65  57  75 SE6       30.08S
WARSAW +       CLOUDY    61  57  88 SE3       30.09S

$$

INZ006>009-017-018-025>027-291100-
NORTHEAST INDIANA

CITY           SKY/WX    TMP DP  RH WIND       PRES   REMARKS
ANGOLA *+      CLEAR     63  52  67 CALM      30.11S
AUBURN +       MOCLDY    61  55  82 CALM      30.11S
FORT WAYNE     MOCLDY    63  58  83 E3        30.10F
HUNTINGTON +   MOCLDY    63  55  76 CALM      30.09F

$$

INZ028-029-035-036-043>045-051>053-291100-
WEST CENTRAL INDIANA

CITY           SKY/WX    TMP DP  RH WIND       PRES   REMARKS
CRAWFORDSVL +  MOCLDY    62  58  86 SE3       30.06F
GREENCASTLE +  MOCLDY    61  55  82 CALM      30.08S
LAFAYETTE      CLOUDY    63  59  87 CALM      30.06S
TERRE HAUTE    MOCLDY    64  60  87 CALM      30.06S

$$

INZ030>032-037>040-046>048-054>057-064-065-291100-
CENTRAL INDIANA

CITY           SKY/WX    TMP DP  RH WIND       PRES   REMARKS
FRANKFORT +    MOCLDY   N/A N/A N/A CALM      30.09S
GREENWOOD *+   MOCLDY    66  57  72 SE5       30.10R
INDIANAPOLIS   MOCLDY    66  59  78 SE6       30.07S
-EAGLE CREEK   MOCLDY    66  59  78 SE3       30.08S
KOKOMO *+      MOCLDY    63  57  82 SE5       30.09S
MARION +       MOCLDY    62  52  71 CALM      30.10S
MT COMFORT *+  CLOUDY    63  63 100 SE3       30.10S
SHELBYVILLE    MOCLDY    65  60  84 SE3       30.09S
ZIONSVILLE +   MOCLDY    63  58  84 SE3       30.09F

$$

INZ033-034-041-042-049-050-058-059-291100-
EAST CENTRAL INDIANA

CITY           SKY/WX    TMP DP  RH WIND       PRES   REMARKS
MUNCIE         MOCLDY    65  58  78 S6        30.10S

$$

INZ060-061-067>069-081>083-085>088-291100-
SOUTHWEST INDIANA

CITY           SKY/WX    TMP DP  RH WIND       PRES   REMARKS
EVANSVILLE     CLOUDY    69  65  86 CALM      30.07R
HUNTINGBURG *+ CLOUDY    70  63  78 S5        30.08S
WASHINGTON +   CLOUDY    64  60  87 CALM      30.06S

$$

INZ062-063-066-070>080-084-089>092-291100-
SOUTH CENTRAL AND SOUTHEAST INDIANA

CITY           SKY/WX    TMP DP  RH WIND       PRES   REMARKS
BLOOMINGTON    MOCLDY    65  61  87 SE6       30.09R
MADISON *+     CLOUDY    68  61  77 SE5       30.13R
NORTH VERNON + CLOUDY    68  63  83 CALM      30.11R
SEYMOUR +      CLOUDY    64  63  94 CALM      30.09S

$$



USA.gov is the U.S. government's official web portal to all federal, state and local government web resources and services.